Flag for Switzerland Weather past 2 weeks in Schwyz, Schwyz, Switzerland

Now
72 °F

Partly sunny.


Feels Like: 75 °F
Forecast: 60 / 87 °F
Wind: 2 mph from Southeast

Location: Altdorf

Current Time: Aug 2, 2015 at 8:50:55 PM

Latest Report: Aug 2, 2015 at 8:00 PM


Visibility: 16 mi

Pressure: 30.00 "Hg (28.26 "Hg at 515m altitude)

Humidity: 70%

Dew point: 62 °F

Location of SchwyzLocation

Historic Weather in Schwyz — Graph

°F

Schwyz temperature yesterday

Maximum temperature yesterday: 69 °F (at 1:00 PM)
Minimum temperature yesterday: 60 °F (at 2:00 AM)
Average temperature yesterday: 64 °F

Past Weeks' High & Low Weather Summary

 TemperatureHumidityPressure
High87 °F (Jul 22, 2:00 PM)98% (Jul 20, 2:00 AM)30.11 "Hg (Jul 20, 2:00 AM)
Low49 °F (Jul 31, 7:00 AM)42% (Jul 19, 1:00 AM)29.66 "Hg (Jul 24, 5:00 PM)
Average68 °F73%29.93 "Hg
* Reported Jul 18 7:00 PM — Aug 2 7:00 PM, Schwyz, Weather by CustomWeather, © 2015

Note: Actual official high and low records may vary slightly from our data, if they occured in-between our weather recording intervals... More about our weather records

Advertising

Schwyz weather history for previous 24 hours

 ConditionsComfort  
Time TempWeatherWind HumidityBarometerVisibility
7:00 PM
Sun, Aug 2
74 °FMild.5 mph65%29.99 "HgN/A
6:00 PM76 °FMild.6 mph58%29.99 "HgN/A
5:00 PM77 °FScattered clouds.14 mph59%29.99 "Hg14 mi
4:00 PM77 °FMild.8 mph63%29.98 "HgN/A
3:00 PM74 °FMild.6 mph66%30.00 "HgN/A
2:00 PM72 °FPassing clouds.7 mph73%30.03 "Hg14 mi
1:00 PM71 °FMild.6 mph68%30.05 "HgN/A
12:00 PM68 °FMild.2 mph77%30.09 "HgN/A
11:00 AM67 °FPartly sunny.3 mph85%30.11 "Hg9 mi
10:00 AM65 °FMild.3 mph84%30.11 "HgN/A
9:00 AM64 °FMild.No wind85%30.10 "HgN/A
8:00 AM62 °FPartly sunny.No wind93%30.10 "Hg9 mi
7:00 AM61 °FCool.3 mph95%30.09 "HgN/A
6:00 AM61 °FCool.1 mph97%30.09 "HgN/A
4:00 AM60 °FCool.1 mph98%30.07 "HgN/A
3:00 AM61 °FCool.2 mph98%30.07 "HgN/A
1:00 AM61 °FCool.1 mph98%30.07 "HgN/A
12:00 AM61 °FCool.1 mph98%30.07 "HgN/A
10:00 PM
Sat, Aug 1
62 °FCool.1 mph97%30.04 "HgN/A
9:00 PM63 °FMild.1 mph97%30.02 "HgN/A
8:00 PM63 °FLight rain. Overcast.1 mph97%30.01 "Hg4 mi
Weather by CustomWeather, © 2015

See weather overviewHow to use our weather pages